Flag for Russia Weather past 2 weeks in Sochi, Russia

Now
61 °F

Overcast.


Feels Like: 61 °F
Forecast: 46 / 57 °F
Wind: 17 mph from Southeast

Location: Adler

Current Time: Dec 27, 2014 at 9:41:22 PM

Latest Report: Dec 27, 2014 at 9:00 PM


Visibility: N/A

Pressure: 29.80 "Hg

Humidity: 27%

Dew point: 27 °F

Location of SochiLocation

Historic Weather in Sochi — Graph

°F

Sochi temperature yesterday

Maximum temperature yesterday: 57 °F (at 11:30 AM)
Minimum temperature yesterday: 43 °F (at 1:30 AM)
Average temperature yesterday: 47 °F

Past Weeks' High & Low Weather Summary

 TemperatureHumidityPressure
High61 °F (Dec 17, 12:30 PM)94% (Dec 13, 7:00 PM)30.33 "Hg (Dec 13, 7:00 PM)
Low37 °F (Dec 22, 10:00 PM)25% (Dec 27, 8:00 PM)29.80 "Hg (Dec 27, 8:30 PM)
Average49 °F75%30.13 "Hg
* Reported Dec 12 8:00 PM — Dec 27 8:30 PM, Sochi, Weather by CustomWeather, © 2014

Note: Actual official high and low records may vary slightly from our data, if they occured in-between our weather recording intervals... More about our weather records

Advertising

Sochi weather history for previous 24 hours

 ConditionsComfort  
Time TempWeatherWind HumidityBarometerVisibility
8:30 PM
Dec 27
61 °FOvercast.17 mph25%29.80 "HgN/A
8:00 PM61 °FOvercast.15 mph25%29.83 "HgN/A
7:30 PM59 °FOvercast.15 mph29%29.83 "HgN/A
7:00 PM59 °FOvercast.15 mph29%29.83 "HgN/A
6:30 PM59 °FMostly cloudy.15 mph29%29.83 "HgN/A
6:00 PM59 °FMostly cloudy.10 mph31%29.83 "HgN/A
5:30 PM59 °FMostly cloudy.15 mph29%29.83 "HgN/A
5:00 PM59 °FMostly cloudy.15 mph27%29.86 "HgN/A
4:30 PM59 °FPartly sunny.17 mph29%29.86 "HgN/A
4:00 PM59 °FScattered clouds.10 mph34%29.86 "HgN/A
3:30 PM59 °FScattered clouds.10 mph42%29.86 "HgN/A
3:00 PM59 °FScattered clouds.10 mph34%29.86 "HgN/A
2:30 PM61 °FPartly sunny.10 mph29%29.86 "HgN/A
2:00 PM59 °FPartly sunny.8 mph39%29.86 "HgN/A
1:30 PM59 °FBroken clouds.10 mph36%29.86 "HgN/A
1:00 PM59 °FPartly sunny.10 mph42%29.89 "HgN/A
12:30 PM57 °FPartly sunny.8 mph48%29.89 "HgN/A
12:00 PM55 °FPartly sunny.6 mph51%29.89 "HgN/A
11:30 AM54 °FMore clouds than sun.6 mph51%29.92 "HgN/A
11:00 AM50 °FMore clouds than sun.8 mph54%29.92 "HgN/A
10:30 AM48 °FMore clouds than sun.8 mph54%29.92 "HgN/A
10:00 AM46 °FMore clouds than sun.13 mph53%29.92 "HgN/A
9:30 AM45 °FMostly cloudy.13 mph61%29.92 "HgN/A
9:00 AM45 °FMore clouds than sun.15 mph61%29.92 "HgN/A
8:30 AM45 °FMostly cloudy.15 mph61%29.92 "HgN/A
8:00 AM45 °FOvercast.13 mph61%29.92 "HgN/A
7:30 AM43 °FOvercast.10 mph66%29.92 "HgN/A
6:30 AM45 °FOvercast.10 mph61%29.92 "HgN/A
6:00 AM43 °FPassing clouds.10 mph61%29.92 "HgN/A
5:30 AM45 °FPassing clouds.10 mph57%29.92 "HgN/A
5:00 AM45 °FPassing clouds.10 mph57%29.92 "HgN/A
4:30 AM45 °FPassing clouds.13 mph61%29.92 "HgN/A
4:00 AM45 °FPassing clouds.13 mph57%29.92 "HgN/A
3:30 AM45 °FPassing clouds.13 mph61%29.95 "HgN/A
3:00 AM45 °FPassing clouds.13 mph61%29.95 "HgN/A
2:30 AM45 °FPassing clouds.10 mph57%29.95 "HgN/A
2:00 AM45 °FPassing clouds.13 mph66%29.95 "HgN/A
1:30 AM45 °FPassing clouds.13 mph66%29.95 "HgN/A
1:00 AM45 °FPassing clouds.10 mph71%29.98 "HgN/A
12:30 AM45 °FPassing clouds.15 mph71%29.98 "HgN/A
12:00 AM45 °FPassing clouds.8 mph66%29.98 "HgN/A
11:30 PM
Dec 26
45 °FPassing clouds.6 mph71%29.98 "HgN/A
11:00 PM45 °FPassing clouds.13 mph66%29.98 "HgN/A
10:30 PM43 °FPassing clouds.10 mph71%29.98 "HgN/A
10:00 PM43 °FPassing clouds.10 mph76%29.98 "HgN/A
9:30 PM45 °FOvercast.10 mph71%30.01 "HgN/A
9:00 PM45 °FMostly cloudy.8 mph71%30.01 "HgN/A
Weather by CustomWeather, © 2014

See weather overviewHow to use our weather pages